| time (UTC) | temp C | wind direction | speed KPH | gust KPH | rain 1hr cm | rain 24hr cm | rain mn cm | humidity % | barometer mb |
| 20260903011129 | 28 | 277 | 1.6 | 8.0 | 0.00 | 0.00 | 0.00 | 100 | |
| 20260903010628 | 28 | 251 | 8.0 | 9.7 | 0.00 | 0.00 | 0.00 | 100 | |
| 20260903010128 | 28 | 226 | 3.2 | 8.0 | 0.00 | 0.00 | 0.00 | 100 | |
| 20260903005628 | 28 | 217 | 3.2 | 9.7 | 0.00 | 0.00 | 0.00 | 100 | |
| 20260903005128 | 28 | 230 | 1.6 | 6.4 | 0.00 | 0.00 | 0.00 | 100 | |
| 20260903004630 | 28 | 225 | 3.2 | 9.7 | 0.00 | 0.00 | 0.00 | 100 | |
| 20260903004128 | 28 | 208 | 1.6 | 9.7 | 0.00 | 0.00 | 0.00 | 100 | |
| 20260903003628 | 28 | 255 | 3.2 | 9.7 | 0.00 | 0.00 | 0.00 | 100 | |
| 20260903003128 | 28 | 71 | 4.8 | 9.7 | 0.00 | 0.00 | 0.00 | 100 | |
| 20260903002628 | 28 | 250 | 3.2 | 8.0 | 0.00 | 0.00 | 0.00 | 100 | |
| 20260903002128 | 28 | 116 | 3.2 | 8.0 | 0.00 | 0.00 | 0.00 | 100 | |
| 20260903001628 | 29 | 219 | 4.8 | 12.9 | 0.00 | 0.00 | 0.00 | 100 | |
| 20260903001128 | 29 | 236 | 12.9 | 12.9 | 0.00 | 0.00 | 0.00 | 100 | |
| 20260903000628 | 29 | 254 | 4.8 | 8.0 | 0.00 | 0.00 | 0.00 | 100 | |
| 20260903000128 | 30 | 258 | 1.6 | 8.0 | 0.00 | 0.00 | 0.00 | 100 | |
| 20260902235628 | 30 | 99 | 4.8 | 11.3 | 0.00 | 0.00 | 0.00 | 100 | |
| 20260902235128 | 30 | 205 | 3.2 | 8.0 | 0.00 | 0.00 | 0.00 | 100 | |
| 20260902234628 | 30 | 87 | 6.4 | 11.3 | 0.00 | 0.00 | 0.00 | 100 | |
| 20260902234128 | 30 | 112 | 3.2 | 12.9 | 0.00 | 0.00 | 0.00 | 100 | |
| 20260902233628 | 31 | 206 | 8.0 | 8.0 | 0.00 | 0.00 | 0.00 | 100 | |
| 20260902233128 | 32 | 275 | 4.8 | 11.3 | 0.00 | 0.00 | 0.00 | 100 | |
| 20260902232628 | 32 | 192 | 9.7 | 11.3 | 0.00 | 0.00 | 0.00 | 100 | |
| 20260902232129 | 32 | 223 | 11.3 | 12.9 | 0.00 | 0.00 | 0.00 | 100 | |
| 20260902231628 | 33 | 289 | 6.4 | 12.9 | 0.00 | 0.00 | 0.00 | 100 | |
| 20260902231128 | 33 | 285 | 9.7 | 12.9 | 0.00 | 0.00 | 0.00 | 100 | |
| 20260902230628 | 33 | 267 | 12.9 | 12.9 | 0.00 | 0.00 | 0.00 | 100 | |
| 20260902230128 | 33 | 284 | 9.7 | 12.9 | 0.00 | 0.00 | 0.00 | 100 | |
| 20260902225628 | 34 | 61 | 8.0 | 12.9 | 0.00 | 0.00 | 0.00 | 100 | |
| 20260902225128 | 33 | 220 | 6.4 | 16.1 | 0.00 | 0.00 | 0.00 | 100 | |
| 20260902224628 | 34 | 226 | 9.7 | 16.1 | 0.00 | 0.00 | 0.00 | 100 | |
| 20260902224128 | 34 | 206 | 8.0 | 14.5 | 0.00 | 0.00 | 0.00 | 100 | |
| 20260902223628 | 34 | 255 | 9.7 | 19.3 | 0.00 | 0.00 | 0.00 | 100 | |
| 20260902223128 | 34 | 208 | 8.0 | 20.9 | 0.00 | 0.00 | 0.00 | 100 | |
| 20260902222628 | 35 | 209 | 6.4 | 14.5 | 0.00 | 0.00 | 0.00 | 100 | |
| 20260902222128 | 34 | 227 | 8.0 | 22.5 | 0.00 | 0.00 | 0.00 | 100 | |
| 20260902221628 | 35 | 255 | 9.7 | 19.3 | 0.00 | 0.00 | 0.00 | 100 | |
| 20260902221128 | 35 | 180 | 11.3 | 16.1 | 0.00 | 0.00 | 0.00 | 100 | |
| 20260902220628 | 35 | 230 | 8.0 | 17.7 | 0.00 | 0.00 | 0.00 | 100 | |
| 20260902220128 | 35 | 237 | 9.7 | 17.7 | 0.00 | 0.00 | 0.00 | 100 | |
| 20260902215628 | 35 | 244 | 9.7 | 17.7 | 0.00 | 0.00 | 0.00 | 100 | |
| 20260902215128 | 35 | 293 | 11.3 | 19.3 | 0.00 | 0.00 | 0.00 | 100 | |
| 20260902214628 | 36 | 289 | 8.0 | 17.7 | 0.00 | 0.00 | 0.00 | 100 | |
| 20260902214128 | 35 | 246 | 9.7 | 24.1 | 0.00 | 0.00 | 0.00 | 100 | |
| 20260902213628 | 36 | 246 | 8.0 | 17.7 | 0.00 | 0.00 | 0.00 | 100 | |
| 20260902213128 | 37 | 222 | 12.9 | 14.5 | 0.00 | 0.00 | 0.00 | 100 | |
| 20260902212628 | 37 | 199 | 3.2 | 16.1 | 0.00 | 0.00 | 0.00 | 100 | |
| 20260902212128 | 36 | 212 | 4.8 | 19.3 | 0.00 | 0.00 | 0.00 | 100 | |
| 20260902211628 | 36 | 253 | 11.3 | 19.3 | 0.00 | 0.00 | 0.00 | 100 | |
| 20260902211128 | 37 | 270 | 9.7 | 16.1 | 0.00 | 0.00 | 0.00 | 100 | |
| 20260902210628 | 37 | 277 | 4.8 | 17.7 | 0.00 | 0.00 | 0.00 | 100 | |
| 20260902210128 | 37 | 261 | 9.7 | 16.1 | 0.00 | 0.00 | 0.00 | 100 | |
| 20260902205631 | 36 | 253 | 11.3 | 20.9 | 0.00 | 0.00 | 0.00 | 100 | |
| 20260902205128 | 36 | 225 | 6.4 | 20.9 | 0.00 | 0.00 | 0.00 | 100 | |
| 20260902204629 | 36 | 281 | 8.0 | 17.7 | 0.00 | 0.00 | 0.00 | 100 | |
| 20260902204128 | 36 | 261 | 12.9 | 22.5 | 0.00 | 0.00 | 0.00 | 100 | |
| 20260902203628 | 36 | 209 | 20.9 | 27.4 | 0.00 | 0.00 | 0.00 | 100 | |
| 20260902203128 | 37 | 253 | 1.6 | 16.1 | 0.00 | 0.00 | 0.00 | 100 | |
| 20260902202628 | 36 | 250 | 11.3 | 17.7 | 0.00 | 0.00 | 0.00 | 100 | |
| 20260902202128 | 37 | 229 | 8.0 | 16.1 | 0.00 | 0.00 | 0.00 | 100 | |
| 20260902201628 | 36 | 240 | 9.7 | 16.1 | 0.00 | 0.00 | 0.00 | 100 | |
| 20260902201128 | 36 | 234 | 12.9 | 19.3 | 0.00 | 0.00 | 0.00 | 100 | |
| 20260902200628 | 37 | 272 | 6.4 | 22.5 | 0.00 | 0.00 | 0.00 | 100 | |
| 20260902200128 | 37 | 271 | 16.1 | 19.3 | 0.00 | 0.00 | 0.00 | 100 | |
| 20260902195628 | 37 | 236 | 16.1 | 17.7 | 0.00 | 0.00 | 0.00 | 100 | |
| 20260902195128 | 36 | 215 | 16.1 | 24.1 | 0.00 | 0.00 | 0.00 | 100 | |
| 20260902194628 | 37 | 271 | 14.5 | 20.9 | 0.00 | 0.00 | 0.00 | 100 | |
| 20260902194128 | 37 | 232 | 4.8 | 19.3 | 0.00 | 0.00 | 0.00 | 100 | |
| 20260902193628 | 36 | 268 | 6.4 | 19.3 | 0.00 | 0.00 | 0.00 | 100 | |
| 20260902193128 | 37 | 267 | 16.1 | 17.7 | 0.00 | 0.00 | 0.00 | 100 | |
| 20260902192628 | 37 | 289 | 9.7 | 24.1 | 0.00 | 0.00 | 0.00 | 100 | |
| 20260902192128 | 36 | 223 | 12.9 | 19.3 | 0.00 | 0.00 | 0.00 | 100 | |
| 20260902191628 | 36 | 230 | 8.0 | 19.3 | 0.00 | 0.00 | 0.00 | 100 | |
| 20260902191128 | 36 | 215 | 17.7 | 22.5 | 0.00 | 0.00 | 0.00 | 100 | |
| 20260902190628 | 37 | 229 | 11.3 | 20.9 | 0.00 | 0.00 | 0.00 | 100 | |
| 20260902190128 | 37 | 272 | 4.8 | 17.7 | 0.00 | 0.00 | 0.00 | 100 | |
| 20260902185628 | 38 | 295 | 9.7 | 20.9 | 0.00 | 0.00 | 0.00 | 100 | |
| 20260902185128 | 38 | 241 | 9.7 | 17.7 | 0.00 | 0.00 | 0.00 | 100 | |
| 20260902184629 | 38 | 199 | 14.5 | 16.1 | 0.00 | 0.00 | 0.00 | 100 | |
| 20260902184129 | 38 | 271 | 6.4 | 14.5 | 0.00 | 0.00 | 0.00 | 100 | |
| 20260902183628 | 37 | 229 | 6.4 | 20.9 | 0.00 | 0.00 | 0.00 | 100 | |
| 20260902183128 | 38 | 274 | 8.0 | 22.5 | 0.00 | 0.00 | 0.00 | 100 | |
| 20260902182629 | 37 | 278 | 17.7 | 19.3 | 0.00 | 0.00 | 0.00 | 100 | |
| 20260902182129 | 37 | 268 | 8.0 | 17.7 | 0.00 | 0.00 | 0.00 | 100 | |
| 20260902181628 | 37 | 295 | 9.7 | 22.5 | 0.00 | 0.00 | 0.00 | 100 | |
| 20260902181129 | 38 | 191 | 14.5 | 16.1 | 0.00 | 0.00 | 0.00 | 100 | |
| 20260902180629 | 37 | 277 | 12.9 | 14.5 | 0.00 | 0.00 | 0.00 | 100 | |
| 20260902180129 | 38 | 285 | 12.9 | 20.9 | 0.00 | 0.00 | 0.00 | 100 | |
| 20260902175629 | 38 | 267 | 9.7 | 17.7 | 0.00 | 0.00 | 0.00 | 100 | |
| 20260902175129 | 36 | 243 | 8.0 | 19.3 | 0.00 | 0.00 | 0.00 | 100 | |
| 20260902174629 | 35 | 275 | 9.7 | 22.5 | 0.00 | 0.00 | 0.00 | 100 | |
| 20260902174129 | 39 | 279 | 9.7 | 17.7 | 0.00 | 0.00 | 0.00 | 100 | |
| 20260902173629 | 38 | 254 | 12.9 | 19.3 | 0.00 | 0.00 | 0.00 | 100 | |
| 20260902173130 | 38 | 279 | 12.9 | 17.7 | 0.00 | 0.00 | 0.00 | 100 | |
| 20260902172630 | 38 | 275 | 11.3 | 19.3 | 0.00 | 0.00 | 0.00 | 100 | |
| 20260902172131 | 38 | 285 | 6.4 | 19.3 | 0.00 | 0.00 | 0.00 | 100 | |
| 20260902171631 | 38 | 182 | 6.4 | 14.5 | 0.00 | 0.00 | 0.00 | 100 | |
| 20260902171129 | 37 | 302 | 12.9 | 16.1 | 0.00 | 0.00 | 0.00 | 100 | |
| 20260902170629 | 39 | 237 | 6.4 | 12.9 | 0.00 | 0.00 | 0.00 | 100 | |
| 20260902170129 | 38 | 296 | 8.0 | 16.1 | 0.00 | 0.00 | 0.00 | 100 | |
| 20260902165629 | 38 | 262 | 12.9 | 16.1 | 0.00 | 0.00 | 0.00 | 100 | |
| 20260902165129 | 38 | 247 | 8.0 | 17.7 | 0.00 | 0.00 | 0.00 | 100 | |
| 20260902164629 | 37 | 251 | 14.5 | 17.7 | 0.00 | 0.00 | 0.00 | 100 | |
| 20260902164129 | 37 | 278 | 14.5 | 19.3 | 0.00 | 0.00 | 0.00 | 100 | |
| 20260902163629 | 38 | 271 | 6.4 | 11.3 | 0.00 | 0.00 | 0.00 | 100 | |
| 20260902163129 | 37 | 267 | 6.4 | 14.5 | 0.00 | 0.00 | 0.00 | 100 | |
| 20260902162629 | 37 | 198 | 4.8 | 14.5 | 0.00 | 0.00 | 0.00 | 100 | |
| 20260902162129 | 36 | 261 | 6.4 | 14.5 | 0.00 | 0.00 | 0.00 | 100 | |
| 20260902161631 | 37 | 272 | 11.3 | 19.3 | 0.00 | 0.00 | 0.00 | 100 | |
| 20260902161129 | 37 | 277 | 9.7 | 17.7 | 0.00 | 0.00 | 0.00 | 100 | |
| 20260902160630 | 37 | 279 | 12.9 | 16.1 | 0.00 | 0.00 | 0.00 | 100 | |
| 20260902160129 | 36 | 251 | 14.5 | 19.3 | 0.00 | 0.00 | 0.00 | 100 | |
| 20260902155629 | 34 | 253 | 9.7 | 17.7 | 0.00 | 0.00 | 0.00 | 100 | |
| 20260902155129 | 33 | 275 | 6.4 | 16.1 | 0.00 | 0.00 | 0.00 | 100 | |
| 20260902154629 | 35 | 253 | 8.0 | 11.3 | 0.00 | 0.00 | 0.00 | 100 | |
| 20260902154129 | 34 | 277 | 8.0 | 16.1 | 0.00 | 0.00 | 0.00 | 100 | |
| 20260902153629 | 37 | 278 | 9.7 | 17.7 | 0.00 | 0.00 | 0.00 | 100 | |
| 20260902153129 | 37 | 264 | 11.3 | 17.7 | 0.00 | 0.00 | 0.00 | 100 | |
| 20260902152629 | 38 | 289 | 11.3 | 16.1 | 0.00 | 0.00 | 0.00 | 100 | |
| 20260902152129 | 38 | 271 | 9.7 | 14.5 | 0.00 | 0.00 | 0.00 | 100 | |
| 20260902151629 | 38 | 312 | 8.0 | 12.9 | 0.00 | 0.00 | 0.00 | 100 | |
| 20260902151129 | 38 | 267 | 9.7 | 12.9 | 0.00 | 0.00 | 0.00 | 100 | |
| 20260902150629 | 37 | 251 | 4.8 | 14.5 | 0.00 | 0.00 | 0.00 | 100 | |
| 20260902150130 | 37 | 286 | 12.9 | 16.1 | 0.00 | 0.00 | 0.00 | 100 | |
| 20260902145629 | 36 | 210 | 11.3 | 14.5 | 0.00 | 0.00 | 0.00 | 100 | |
| 20260902145129 | 38 | 243 | 9.7 | 16.1 | 0.00 | 0.00 | 0.00 | 100 | |
| 20260902144629 | 37 | 295 | 11.3 | 16.1 | 0.00 | 0.00 | 0.00 | 100 | |
| 20260902144129 | 36 | 310 | 11.3 | 19.3 | 0.00 | 0.00 | 0.00 | 100 | |
| 20260902143629 | 35 | 271 | 11.3 | 17.7 | 0.00 | 0.00 | 0.00 | 100 | |
| 20260902143129 | 37 | 248 | 8.0 | 14.5 | 0.00 | 0.00 | 0.00 | 100 | |
| 20260902142629 | 35 | 250 | 4.8 | 14.5 | 0.00 | 0.00 | 0.00 | 100 | |
| 20260902142130 | 35 | 220 | 9.7 | 14.5 | 0.00 | 0.00 | 0.00 | 100 | |
| 20260902141629 | 33 | 302 | 12.9 | 16.1 | 0.00 | 0.00 | 0.00 | 100 | |
| 20260902141129 | 32 | 250 | 4.8 | 11.3 | 0.00 | 0.00 | 0.00 | 100 | |
| 20260902140646 | 31 | 226 | 6.4 | 14.5 | 0.00 | 0.00 | 0.00 | 100 | |
| 20260902140133 | 30 | 282 | 8.0 | 19.3 | 0.00 | 0.00 | 0.00 | 100 | |
| 20260902135629 | 31 | 251 | 8.0 | 17.7 | 0.00 | 0.00 | 0.00 | 100 | |
| 20260902135131 | 32 | 285 | 9.7 | 16.1 | 0.00 | 0.00 | 0.00 | 100 | |
| 20260902134630 | 33 | 241 | 6.4 | 12.9 | 0.00 | 0.00 | 0.00 | 100 | |
| 20260902134129 | 34 | 261 | 4.8 | 14.5 | 0.00 | 0.00 | 0.00 | 100 | |
| 20260902133629 | 34 | 243 | 8.0 | 12.9 | 0.00 | 0.00 | 0.00 | 100 | |
| 20260902133132 | 33 | 281 | 11.3 | 14.5 | 0.00 | 0.00 | 0.00 | 100 | |
| 20260902132635 | 33 | 223 | 11.3 | 14.5 | 0.00 | 0.00 | 0.00 | 100 | |
| 20260902132132 | 32 | 268 | 6.4 | 16.1 | 0.00 | 0.00 | 0.00 | 100 | |
| 20260902131639 | 33 | 275 | 8.0 | 12.9 | 0.00 | 0.00 | 0.00 | 100 | |
| 20260902131134 | 32 | 262 | 9.7 | 12.9 | 0.00 | 0.00 | 0.00 | 100 | |
| 20260902130630 | 32 | 261 | 9.7 | 16.1 | 0.00 | 0.00 | 0.00 | 100 | |
| 20260902130129 | 32 | 253 | 8.0 | 12.9 | 0.00 | 0.00 | 0.00 | 100 | |
| 20260902125631 | 32 | 274 | 8.0 | 11.3 | 0.00 | 0.00 | 0.00 | 100 | |
| 20260902125129 | 33 | 257 | 4.8 | 8.0 | 0.00 | 0.00 | 0.00 | 100 | |
| 20260902123632 | 32 | 279 | 3.2 | 8.0 | 0.00 | 0.00 | 0.00 | 100 | |
| 20260902123132 | 32 | 243 | 4.8 | 8.0 | 0.00 | 0.00 | 0.00 | 100 | |
| 20260902122635 | 32 | 261 | 8.0 | 9.7 | 0.00 | 0.00 | 0.00 | 100 | |
| 20260902122212 | 31 | 240 | 1.6 | 9.7 | 0.00 | 0.00 | 0.00 | 100 | |
| 20260902122140 | 31 | 240 | 1.6 | 9.7 | 0.00 | 0.00 | 0.00 | 100 | |
| 20260902121646 | 30 | 284 | 3.2 | 9.7 | 0.00 | 0.00 | 0.00 | 100 | |
| 20260902121203 | 29 | 260 | 6.4 | 9.7 | 0.00 | 0.00 | 0.00 | 100 | |
| 20260902120635 | 28 | 230 | 4.8 | 9.7 | 0.00 | 0.00 | 0.00 | 100 | |
| 20260902120141 | 29 | 250 | 4.8 | 6.4 | 0.00 | 0.00 | 0.00 | 100 | |
| 20260902115629 | 29 | 219 | 1.6 | 4.8 | 0.00 | 0.00 | 0.00 | 100 | |
| 20260902115133 | 28 | 229 | 3.2 | 4.8 | 0.00 | 0.00 | 0.00 | 100 | |
| 20260902114639 | 27 | 309 | 0.0 | 4.8 | 0.00 | 0.00 | 0.00 | 100 | |
| 20260902114133 | 26 | 150 | 1.6 | 4.8 | 0.00 | 0.00 | 0.00 | 100 | |
| 20260902113629 | 25 | 226 | 3.2 | 8.0 | 0.00 | 0.00 | 0.00 | 100 | |
| 20260902113129 | 23 | 250 | 0.0 | 8.0 | 0.00 | 0.00 | 0.00 | 100 | |
| 20260902113005 | 22 | 233 | 4.8 | 8.0 | 0.00 | 0.00 | 0.00 | 100 | |
| 20260902112633 | 22 | 233 | 1.6 | 8.0 | 0.00 | 0.00 | 0.00 | 100 | |
| 20260902112151 | 22 | 233 | 4.8 | 8.0 | 0.00 | 0.00 | 0.00 | 100 | |
| 20260902111631 | 22 | 243 | 3.2 | 6.4 | 0.00 | 0.00 | 0.00 | 100 | |
| 20260902111136 | 22 | 177 | 3.2 | 4.8 | 0.00 | 0.00 | 0.00 | 100 | |
| 20260902110651 | 22 | 299 | 3.2 | 3.2 | 0.00 | 0.00 | 0.00 | 100 | |
| 20260902110133 | 22 | 217 | 0.0 | 6.4 | 0.00 | 0.00 | 0.00 | 100 | |
| 20260902105629 | 22 | 210 | 1.6 | 3.2 | 0.00 | 0.00 | 0.00 | 100 | |
| 20260902105135 | 22 | 306 | 1.6 | 6.4 | 0.00 | 0.00 | 0.00 | 100 | |
| 20260902104630 | 22 | 202 | 1.6 | 4.8 | 0.00 | 0.00 | 0.00 | 100 | |
| 20260902104133 | 22 | 292 | 0.0 | 8.0 | 0.00 | 0.00 | 0.00 | 100 | |
| 20260902103632 | 22 | 212 | 4.8 | 8.0 | 0.00 | 0.00 | 0.00 | 100 | |
| 20260902103133 | 22 | 206 | 3.2 | 8.0 | 0.00 | 0.00 | 0.00 | 100 | |
| 20260902102721 | 22 | 292 | 3.2 | 4.8 | 0.00 | 0.00 | 0.00 | 100 | |
| 20260902102649 | 22 | 292 | 3.2 | 4.8 | 0.00 | 0.00 | 0.00 | 100 | |
| 20260902102143 | 22 | 198 | 4.8 | 4.8 | 0.00 | 0.00 | 0.00 | 100 | |
| 20260902101629 | 22 | 267 | 3.2 | 8.0 | 0.00 | 0.00 | 0.00 | 100 | |
| 20260902101146 | 22 | 230 | 3.2 | 6.4 | 0.00 | 0.00 | 0.00 | 100 | |
| 20260902100718 | 22 | 236 | 1.6 | 8.0 | 0.00 | 0.00 | 0.00 | 100 | |
| 20260902100646 | 22 | 236 | 1.6 | 8.0 | 0.00 | 0.00 | 0.00 | 100 | |
| 20260902100132 | 22 | 213 | 3.2 | 6.4 | 0.00 | 0.00 | 0.00 | 100 | |
| 20260902095648 | 22 | 191 | 1.6 | 8.0 | 0.00 | 0.00 | 0.00 | 100 | |
| 20260902095137 | 22 | 232 | 3.2 | 9.7 | 0.00 | 0.00 | 0.00 | 100 | |
| 20260902094708 | 22 | 243 | 3.2 | 4.8 | 0.00 | 0.00 | 0.00 | 100 | |
| 20260902094631 | 22 | 243 | 3.2 | 4.8 | 0.00 | 0.00 | 0.00 | 100 | |
| 20260902094144 | 22 | 215 | 3.2 | 6.4 | 0.00 | 0.00 | 0.00 | 100 | |
| 20260902093713 | 22 | 247 | 1.6 | 6.4 | 0.00 | 0.00 | 0.00 | 100 | |
| 20260902093642 | 22 | 247 | 1.6 | 6.4 | 0.00 | 0.00 | 0.00 | 100 | |
| 20260902093135 | 22 | 233 | 4.8 | 6.4 | 0.00 | 0.00 | 0.00 | 100 | |
| 20260902092939 | 22 | 232 | 3.2 | 6.4 | 0.00 | 0.00 | 0.00 | 100 | |
| 20260902092632 | 22 | 232 | 3.2 | 6.4 | 0.00 | 0.00 | 0.00 | 100 | |
| 20260902092129 | 22 | 181 | 0.0 | 1.6 | 0.00 | 0.00 | 0.00 | 100 | |
| 20260902091629 | 22 | 223 | 1.6 | 4.8 | 0.00 | 0.00 | 0.00 | 100 | |
| 20260902091138 | 22 | 177 | 0.0 | 1.6 | 0.00 | 0.00 | 0.00 | 100 | |
| 20260902090630 | 22 | 181 | 0.0 | 1.6 | 0.00 | 0.00 | 0.00 | 100 | |
| 20260902090130 | 22 | 161 | 0.0 | 1.6 | 0.00 | 0.00 | 0.00 | 100 | |
| 20260902085632 | 22 | 213 | 1.6 | 1.6 | 0.00 | 0.00 | 0.00 | 100 | |
| 20260902085145 | 22 | 170 | 0.0 | 0.0 | 0.00 | 0.00 | 0.00 | 100 | |
| 20260902084641 | 23 | 241 | 0.0 | 1.6 | 0.00 | 0.00 | 0.00 | 100 | |
| 20260902084130 | 23 | 243 | 0.0 | 4.8 | 0.00 | 0.00 | 0.00 | 100 | |
| 20260902083711 | 23 | 219 | 3.2 | 3.2 | 0.00 | 0.00 | 0.00 | 100 | |
| 20260902083637 | 23 | 219 | 3.2 | 3.2 | 0.00 | 0.00 | 0.00 | 100 | |
| 20260902083215 | 23 | 244 | 1.6 | 3.2 | 0.00 | 0.00 | 0.00 | 100 | |
| 20260902083137 | 23 | 244 | 1.6 | 3.2 | 0.00 | 0.00 | 0.00 | 100 | |
| 20260902082645 | 23 | 195 | 0.0 | 0.0 | 0.00 | 0.00 | 0.00 | 100 | |
| 20260902082150 | 23 | 195 | 0.0 | 3.2 | 0.00 | 0.00 | 0.00 | 100 | |
| 20260902081632 | 23 | 236 | 3.2 | 3.2 | 0.00 | 0.00 | 0.00 | 100 | |
| 20260902081144 | 23 | 234 | 3.2 | 3.2 | 0.00 | 0.00 | 0.00 | 100 | |
| 20260902080306 | 23 | 240 | 1.6 | 4.8 | 0.00 | 0.00 | 0.00 | 100 | |
| 20260902080231 | 23 | 240 | 1.6 | 4.8 | 0.00 | 0.00 | 0.00 | 100 | |
| 20260902080130 | 23 | 240 | 1.6 | 4.8 | 0.00 | 0.00 | 0.00 | 100 | |
| 20260902075632 | 23 | 227 | 1.6 | 3.2 | 0.00 | 0.00 | 0.00 | 100 | |
| 20260902075216 | 23 | 234 | 1.6 | 4.8 | 0.00 | 0.00 | 0.00 | 100 | |
| 20260902075131 | 23 | 234 | 1.6 | 4.8 | 0.00 | 0.00 | 0.00 | 100 | |
| 20260902074640 | 23 | 261 | 1.6 | 4.8 | 0.00 | 0.00 | 0.00 | 100 | |
| 20260902074133 | 24 | 248 | 3.2 | 4.8 | 0.00 | 0.00 | 0.00 | 100 | |
| 20260902073634 | 24 | 243 | 4.8 | 8.0 | 0.00 | 0.00 | 0.00 | 100 | |
| 20260902073230 | 24 | 268 | 3.2 | 4.8 | 0.00 | 0.00 | 0.00 | 100 | |
| 20260902073145 | 24 | 268 | 3.2 | 4.8 | 0.00 | 0.00 | 0.00 | 100 | |
| 20260902072631 | 24 | 232 | 4.8 | 6.4 | 0.00 | 0.00 | 0.00 | 100 | |
| 20260902072132 | 24 | 272 | 4.8 | 8.0 | 0.00 | 0.00 | 0.00 | 100 | |
| 20260902071630 | 24 | 240 | 1.6 | 4.8 | 0.00 | 0.00 | 0.00 | 100 | |
| 20260902071131 | 24 | 284 | 3.2 | 4.8 | 0.00 | 0.00 | 0.00 | 100 | |
| 20260902070137 | 24 | 205 | 1.6 | 6.4 | 0.00 | 0.00 | 0.00 | 100 | |
| 20260902065636 | 24 | 247 | 1.6 | 4.8 | 0.00 | 0.00 | 0.00 | 100 | |
| 20260902065133 | 23 | 241 | 1.6 | 3.2 | 0.00 | 0.00 | 0.00 | 100 | |
| 20260902064630 | 23 | 262 | 1.6 | 3.2 | 0.00 | 0.00 | 0.00 | 100 | |
| 20260902064202 | 23 | 246 | 1.6 | 3.2 | 0.00 | 0.00 | 0.00 | 100 | |
| 20260902064131 | 23 | 246 | 1.6 | 3.2 | 0.00 | 0.00 | 0.00 | 100 | |
| 20260902063716 | 23 | 272 | 1.6 | 1.6 | 0.00 | 0.00 | 0.00 | 100 | |
| 20260902063630 | 23 | 272 | 1.6 | 1.6 | 0.00 | 0.00 | 0.00 | 100 | |
| 20260902063131 | 24 | 243 | 0.0 | 3.2 | 0.00 | 0.00 | 0.00 | 100 | |
| 20260902062630 | 24 | 219 | 0.0 | 3.2 | 0.00 | 0.00 | 0.00 | 100 | |
| 20260902062134 | 24 | 257 | 1.6 | 4.8 | 0.00 | 0.00 | 0.00 | 100 | |
| 20260902061642 | 24 | 262 | 1.6 | 3.2 | 0.00 | 0.00 | 0.00 | 100 | |
| 20260902061130 | 24 | 236 | 1.6 | 3.2 | 0.00 | 0.00 | 0.00 | 100 | |
| 20260902060631 | 24 | 240 | 3.2 | 4.8 | 0.00 | 0.00 | 0.00 | 100 | |
| 20260902060133 | 24 | 264 | 1.6 | 4.8 | 0.00 | 0.00 | 0.00 | 100 | |
| 20260902055840 | 25 | 240 | 3.2 | 4.8 | 0.00 | 0.00 | 0.00 | 100 | |
| 20260902055637 | 25 | 240 | 3.2 | 4.8 | 0.00 | 0.00 | 0.00 | 100 | |
| 20260902055140 | 25 | 240 | 1.6 | 4.8 | 0.00 | 0.00 | 0.00 | 100 | |
| 20260902054722 | 25 | 195 | 1.6 | 4.8 | 0.00 | 0.00 | 0.00 | 100 | |
| 20260902054631 | 25 | 195 | 1.6 | 4.8 | 0.00 | 0.00 | 0.00 | 100 | |
| 20260902054203 | 25 | 267 | 1.6 | 6.4 | 0.00 | 0.00 | 0.00 | 100 | |
| 20260902054130 | 25 | 267 | 1.6 | 6.4 | 0.00 | 0.00 | 0.00 | 100 | |
| 20260902053630 | 25 | 264 | 3.2 | 6.4 | 0.00 | 0.00 | 0.00 | 100 | |
| 20260902053141 | 25 | 243 | 3.2 | 8.0 | 0.00 | 0.00 | 0.00 | 100 | |
| 20260902052632 | 25 | 267 | 4.8 | 9.7 | 0.00 | 0.00 | 0.00 | 100 | |
| 20260902052132 | 25 | 292 | 6.4 | 8.0 | 0.00 | 0.00 | 0.00 | 100 | |
| 20260902051630 | 25 | 246 | 6.4 | 8.0 | 0.00 | 0.00 | 0.00 | 100 | |
| 20260902051133 | 25 | 274 | 6.4 | 8.0 | 0.00 | 0.00 | 0.00 | 100 | |
| 20260902050630 | 25 | 244 | 4.8 | 9.7 | 0.00 | 0.00 | 0.00 | 100 | |
| 20260902050130 | 25 | 270 | 4.8 | 8.0 | 0.00 | 0.00 | 0.00 | 100 | |
| 20260902045630 | 25 | 285 | 6.4 | 9.7 | 0.00 | 0.00 | 0.00 | 100 | |
| 20260902045130 | 25 | 261 | 3.2 | 9.7 | 0.00 | 0.00 | 0.00 | 100 | |
| 20260902044637 | 25 | 233 | 6.4 | 9.7 | 0.00 | 0.00 | 0.00 | 100 | |
| 20260902044211 | 25 | 340 | 3.2 | 9.7 | 0.00 | 0.00 | 0.00 | 100 | |
| 20260902044131 | 25 | 340 | 3.2 | 9.7 | 0.00 | 0.00 | 0.00 | 100 | |
| 20260902043630 | 25 | 251 | 9.7 | 9.7 | 0.00 | 0.00 | 0.00 | 100 | |
| 20260902043132 | 25 | 277 | 4.8 | 8.0 | 0.00 | 0.00 | 0.00 | 100 | |
| 20260902042630 | 25 | 254 | 6.4 | 9.7 | 0.00 | 0.00 | 0.00 | 100 | |
| 20260902042211 | 25 | 246 | 4.8 | 8.0 | 0.00 | 0.00 | 0.00 | 100 | |
| 20260902042138 | 25 | 246 | 4.8 | 8.0 | 0.00 | 0.00 | 0.00 | 100 | |
| 20260902041630 | 25 | 246 | 3.2 | 6.4 | 0.00 | 0.00 | 0.00 | 100 | |
| 20260902041138 | 25 | 271 | 3.2 | 6.4 | 0.00 | 0.00 | 0.00 | 100 | |
| 20260902040634 | 25 | 247 | 3.2 | 4.8 | 0.00 | 0.00 | 0.00 | 100 | |
| 20260902040142 | 25 | 232 | 1.6 | 6.4 | 0.00 | 0.00 | 0.00 | 100 | |
| 20260902035630 | 26 | 288 | 1.6 | 4.8 | 0.00 | 0.00 | 0.00 | 100 | |
| 20260902035132 | 26 | 288 | 3.2 | 6.4 | 0.00 | 0.00 | 0.00 | 100 | |
| 20260902034632 | 26 | 303 | 3.2 | 8.0 | 0.00 | 0.00 | 0.00 | 100 | |
| 20260902034139 | 26 | 234 | 1.6 | 6.4 | 0.00 | 0.00 | 0.00 | 100 | |
| 20260902033631 | 26 | 243 | 4.8 | 6.4 | 0.00 | 0.00 | 0.00 | 100 | |
| 20260902033134 | 26 | 250 | 0.0 | 8.0 | 0.00 | 0.00 | 0.00 | 100 | |
| 20260902032632 | 26 | 251 | 3.2 | 6.4 | 0.00 | 0.00 | 0.00 | 100 | |
| 20260902032132 | 26 | 208 | 3.2 | 4.8 | 0.00 | 0.00 | 0.00 | 100 | |
| 20260902031135 | 26 | 288 | 3.2 | 4.8 | 0.00 | 0.00 | 0.00 | 100 | |
| 20260902030634 | 26 | 257 | 1.6 | 3.2 | 0.00 | 0.00 | 0.00 | 100 | |
| 20260902030130 | 26 | 315 | 0.0 | 6.4 | 0.00 | 0.00 | 0.00 | 100 | |
| 20260902025630 | 26 | 241 | 1.6 | 8.0 | 0.00 | 0.00 | 0.00 | 100 | |
| 20260902025130 | 26 | 230 | 4.8 | 8.0 | 0.00 | 0.00 | 0.00 | 100 | |
| 20260902024630 | 26 | 205 | 1.6 | 9.7 | 0.00 | 0.00 | 0.00 | 100 | |
| 20260902023630 | 26 | 244 | 3.2 | 8.0 | 0.00 | 0.00 | 0.00 | 100 | |
| 20260902023131 | 27 | 233 | 3.2 | 8.0 | 0.00 | 0.00 | 0.00 | 100 | |
| 20260902022631 | 27 | 205 | 3.2 | 9.7 | 0.00 | 0.00 | 0.00 | 100 | |
| 20260902022131 | 27 | 215 | 6.4 | 8.0 | 0.00 | 0.00 | 0.00 | 100 | |
| 20260902021630 | 27 | 212 | 6.4 | 6.4 | 0.00 | 0.00 | 0.00 | 100 | |
| 20260902020631 | 27 | 278 | 4.8 | 8.0 | 0.00 | 0.00 | 0.00 | 100 | |
| 20260902020130 | 27 | 253 | 3.2 | 8.0 | 0.00 | 0.00 | 0.00 | 100 | |
| 20260902015630 | 27 | 243 | 1.6 | 6.4 | 0.00 | 0.00 | 0.00 | 100 | |
| 20260902015132 | 27 | 248 | 4.8 | 8.0 | 0.00 | 0.00 | 0.00 | 100 | |
| 20260902014631 | 27 | 310 | 3.2 | 8.0 | 0.00 | 0.00 | 0.00 | 100 | |
| 20260902014134 | 27 | 233 | 3.2 | 9.7 | 0.00 | 0.00 | 0.00 | 100 | |
| 20260902013630 | 27 | 239 | 4.8 | 8.0 | 0.00 | 0.00 | 0.00 | 100 | |
| 20260902013130 | 27 | 239 | 4.8 | 6.4 | 0.00 | 0.00 | 0.00 | 100 | |
| 20260902012630 | 27 | 233 | 3.2 | 6.4 | 0.00 | 0.00 | 0.00 | 100 | |
| 20260902012132 | 27 | 239 | 4.8 | 6.4 | 0.00 | 0.00 | 0.00 | 100 | |
| 20260902011631 | 27 | 240 | 3.2 | 6.4 | 0.00 | 0.00 | 0.00 | 100 |